Location: 22
(39.7117°N, 89.5929°W)
Time: 13:00:37
(UTC-05:00)

Vanguard 3 - Pass Details

Date: 21 September 2024
Orbit: 507 x 3223 km, 33.3° (Epoch: 11 October)

Event Time Altitude Azimuth Distance (km) Brightness Sun altitude
Exits shadow 03:40:42 19° 174° (S) 4,301 10.5 -34.3°
Maximum altitude 03:48:19 28° 136° (SE) 4,234 10.8 -33.1°
Drops below altitude 10° 04:02:44 10° 87° (E) 6,127 12.3 -30.7°
Sets 04:08:39 0° 77° (ENE) 7,179 13.0 -29.8°
